Temperature
17 17 17 17 17 17 17 17 17 18 18 18 17 17 17 17 17 16 16 17 17 17 17 17 17 18 18 18 17 17 17 17 17 17 17 17 17 17 17 17 17 17 17
17 17 17 17 17 17 17 17 17 17 17 17 17 17 17 17 16 16 16 16 17 17 17 17 17 17 17 17 17 17 17 17 17 17 17 17 17 17 17 17 17 17 17
17 17 17 17 17 17 17 17 17 17 17 17 17 16 17 16 16 16 16 16 16 17 17 17 17 17 17 17 17 17 17 17 17 17 17 17 16 16 16 16 16 16 16
17 17 17 17 17 17 17 17 17 17 17 17 17 17 16 16 16 16 16 16 16 16 16 16 16 17 17 17 17 17 17 17 17 17 17 17 16 16 16 16 16 16 16
17 17 17 17 17 16 16 17 17 17 17 17 17 16 16 16 16 16 17 16 16 16 16 16 16 16 16 16 16 17 17 17 17 17 17 17 16 16 16 16 16 16 16
17 17 17 17 17 16 16 16 16 16 17 16 17 16 16 16 16 16 16 16 16 16 16 15 16 16 16 16 16 16 16 16 16 16 16 17 17 16 16 16 16 16 16
17 17 17 17 17 17 16 16 16 16 16 16 16 16 16 16 17 16 16 16 16 16 16 15 15 15 16 16 16 16 16 16 16 16 16 16 16 16 16 16 16 16 16
17 17 17 17 17 17 16 16 16 16 16 16 16 17 17 17 16 16 16 16 16 16 16 16 16 15 15 15 16 16 16 16 16 16 16 16 16 16 16 16 16 16 15
17 17 17 17 17 17 17 17 16 16 16 16 16 16 16 17 18 17 16 16 16 16 16 16 16 16 15 15 15 16 16 16 16 16 16 16 16 16 16 16 16 15 15
17 17 17 17 17 16 16 16 16 16 16 16 16 16 16 16 16 17 16 16 16 16 16 15 15 15 15 15 15 16 16 16 16 16 16 16 16 16 16 16 15 15 15
17 17 17 17 16 16 16 16 16 16 16 16 15 15 15 15 15 16 17 16 16 16 15 15 15 15 15 15 15 15 16 16 16 16 16 16 16 16 16 16 16 15 15
17 17 17 16 16 16 16 16 16 16 16 15 15 15 15 15 15 15 16 16 16 16 15 15 15 15 15 14 15 15 16 16 16 16 16 16 16 16 16 16 16 15 15
17 16 16 16 16 15 15 15 15 15 15 15 15 15 15 15 15 15 15 15 15 15 15 15 15 15 15 15 15 15 15 15 15 15 15 15 16 16 16 16 16 15 15
16 16 16 16 16 15 15 15 15 15 15 15 15 15 15 14 14 14 14 14 14 15 15 15 15 15 15 15 15 15 15 15 15 15 15 15 15 15 15 15 15 15 15
16 16 16 16 15 15 15 15 15 15 15 15 14 14 14 14 14 14 14 14 14 14 14 15 15 15 15 15 15 15 15 15 15 15 15 15 15 15 15 15 15 15 15
16 16 16 16 15 15 15 15 15 15 15 15 15 14 14 14 14 14 14 14 14 14 14 14 14 14 15 15 15 15 14 15 15 15 15 15 15 15 15 15 15 15 15
16 16 16 15 15 15 15 15 15 15 15 15 14 14 14 14 14 14 14 14 14 13 13 14 14 14 14 14 14 15 15 15 15 15 15 15 15 15 15 15 15 15 15
16 16 15 15 15 15 15 15 15 15 15 14 14 14 14 13 14 14 14 13 13 13 13 13 13 14 14 14 14 14 15 15 15 15 15 15 15 15 15 15 15 14 14
15 15 15 15 15 15 15 14 14 14 14 14 14 14 13 13 13 13 13 13 13 13 13 13 13 13 13 13 14 14 14 15 15 15 15 15 15 15 15 15 14 14 14
15 15 15 15 15 15 15 14 14 14 14 14 14 14 14 13 13 13 13 13 13 13 13 13 13 13 13 13 13 14 14 14 14 14 15 15 15 15 15 15 14 14 14
15 15 15 15 15 15 14 14 14 14 14 14 14 14 14 14 14 13 13 13 13 13 13 13 13 13 13 13 13 13 13 14 14 14 14 14 14 14 14 15 15 14 14
15 15 15 15 15 14 15 15 14 14 14 14 14 14 14 14 14 14 14 14 13 13 13 13 13 13 13 13 13 13 13 13 13 14 14 14 14 14 14 14 14 14 14
15 15 14 14 14 14 15 15 15 14 14 14 14 14 14 13 14 13 13 14 13 13 13 13 13 13 13 13 13 12 12 13 13 13 13 13 13 13 14 13 14 14 14
13 13 14 13 14 14 14 14 14 14 14 14 14 14 14 14 13 13 13 13 13 13 13 13 12 12 12 12 12 12 12 12 12 12 12 12 13 13 13 13 13 14 13
12 12 13 13 13 13 13 13 14 13 13 13 13 13 13 13 13 14 14 14 13 13 13 13 13 13 12 12 12 12 12 12 12 12 12 12 12 12 12 13 13 13 13
12 12 12 12 12 12 12 12 13 13 13 13 13 13 13 13 13 14 13 13 13 13 13 13 13 13 13 12 12 12 12 12 12 11 12 12 12 11 12 12 12 12 12
Wind_Speed
7 6 6 6 7 6 6 4 4 4 3 2 1 1 2 2 1 1 3 6 4 3 1 3 3 2 3 3 3 4 4 5 6 7 7 6 6 5 4 4 3 3 3
7 6 6 6 7 7 5 5 4 4 4 2 1 2 2 2 2 2 2 5 5 4 3 0 2 1 1 2 3 4 4 5 6 6 7 7 6 5 4 4 4 3 2
8 7 6 7 7 8 7 5 4 4 3 3 3 1 2 2 2 2 3 2 4 6 5 3 2 2 2 3 3 4 4 4 4 5 5 5 5 4 4 3 4 4 3
10 7 6 6 8 8 7 5 5 5 5 4 3 3 2 2 1 2 1 2 3 4 7 7 5 3 4 4 4 4 4 3 3 3 2 2 2 2 2 3 4 5 4
11 9 6 6 9 7 7 6 6 6 6 5 4 3 3 3 1 2 1 2 3 3 5 8 8 7 5 4 2 2 2 2 2 2 2 2 1 1 2 3 4 5 5
12 9 5 7 7 7 7 7 7 6 6 5 5 5 4 4 4 4 2 2 2 3 2 3 5 7 7 5 3 1 1 2 2 2 2 2 2 2 2 3 4 4 5
12 10 7 7 7 8 9 9 8 8 7 7 6 6 6 7 6 5 5 4 4 3 4 4 2 3 5 6 5 4 2 2 2 1 1 1 1 1 1 1 2 3 3
12 10 10 8 9 9 11 10 9 8 7 8 8 7 6 7 7 8 7 6 6 5 5 4 5 4 3 4 7 5 5 4 3 3 2 2 2 2 1 0 1 1 1
11 11 10 9 10 10 9 11 11 11 9 9 9 7 6 5 4 6 9 8 7 6 6 6 5 5 4 4 5 7 4 3 2 2 3 3 4 5 4 3 2 3 4
10 10 9 9 8 8 8 9 10 9 10 9 9 9 9 5 5 4 6 8 8 8 8 6 6 6 6 5 3 3 2 1 1 1 3 4 5 6 6 6 6 5 5
8 9 8 7 7 7 8 8 8 9 9 10 9 9 10 8 10 8 6 6 6 8 8 8 7 7 7 7 5 6 4 2 1 1 2 2 3 5 5 5 5 4 4
6 8 7 7 7 6 7 7 7 9 9 10 9 9 9 8 10 10 9 7 5 6 7 7 8 7 8 8 8 8 7 6 4 3 1 1 2 2 2 2 2 2 2
5 7 7 6 6 5 5 6 7 7 9 9 10 9 9 10 9 9 9 8 6 4 5 7 8 9 10 10 10 12 11 10 8 6 4 3 2 1 1 1 1 2 3
4 6 6 6 5 5 5 5 5 6 7 8 9 10 8 9 9 9 9 8 7 6 6 7 6 8 10 11 10 15 11 15 12 10 7 6 4 3 2 1 1 2 4
4 6 6 6 5 5 5 5 5 6 6 7 8 9 9 8 8 9 9 9 8 7 7 5 4 5 7 9 8 12 12 16 16 13 11 9 7 6 4 4 3 3 4
6 6 6 6 6 6 5 4 4 3 5 5 6 7 8 8 8 8 8 8 8 8 6 3 4 4 4 5 8 11 12 14 16 15 14 12 10 9 8 7 6 5 5
6 6 6 7 7 6 6 4 3 3 4 5 6 7 8 8 7 7 7 7 8 8 9 5 3 5 6 6 5 8 10 11 13 18 17 15 13 12 11 10 9 8 7
6 7 7 7 6 6 5 5 4 4 4 4 5 5 6 6 7 7 7 8 8 8 8 8 6 6 9 8 7 7 7 9 11 16 19 17 16 15 14 13 12 11 10
6 6 7 7 7 7 6 5 5 4 4 4 4 5 5 5 6 6 7 7 7 8 8 8 7 6 6 5 6 7 8 7 10 10 15 17 18 18 17 17 16 14 13
5 6 7 7 7 7 7 7 6 5 5 5 4 4 4 4 5 4 4 5 6 7 7 8 7 5 5 4 5 6 7 7 8 9 11 13 16 19 20 20 19 18 17
5 6 6 7 7 7 7 7 7 7 7 6 6 5 4 2 5 4 4 4 4 5 5 6 6 5 5 4 5 5 6 6 7 7 8 9 10 12 15 19 21 21 20
2 3 4 5 6 6 1 3 8 8 8 8 7 6 5 5 6 6 6 5 5 4 3 3 4 5 6 6 6 5 5 5 5 4 6 7 7 8 9 12 15 21 22
3 2 2 2 3 1 3 5 9 9 10 8 8 7 6 5 5 6 7 9 8 7 5 5 4 3 3 3 5 6 6 6 4 1 2 5 5 7 7 9 9 14 19
6 5 5 4 4 6 8 5 6 11 10 9 9 8 8 8 7 5 5 6 5 4 5 6 4 2 1 1 1 2 2 2 1 1 2 3 3 4 5 7 7 13 16
7 7 7 7 6 7 12 10 7 7 7 8 8 8 8 8 5 2 7 6 5 3 3 4 4 2 2 1 1 1 2 2 2 2 3 2 2 2 4 4 3 5 11
6 6 7 7 7 8 12 13 10 3 4 4 5 6 4 4 2 4 7 6 5 2 2 4 5 5 4 5 5 3 2 2 1 2 3 3 1 1 3 2 1 3 5
Wind_Direction
188 174 184 182 195 181 179 195 206 167 178 144 76 30 65 58 39 43 94 76 30 9 298 237 220 227 228 230 221 210 202 195 185 180 177 173 170 168 167 164 159 144 118
192 183 190 187 192 189 187 195 186 174 182 159 118 63 33 59 69 87 79 122 101 59 39 102 187 201 226 207 200 199 196 197 196 196 194 190 184 179 175 176 174 165 146
194 193 192 187 189 190 191 199 175 184 172 164 162 133 85 35 25 69 73 71 118 105 79 75 95 108 119 129 134 151 161 172 185 197 195 190 182 169 171 188 198 195 187
200 194 191 192 193 192 197 192 203 196 187 194 187 178 176 150 216 56 120 113 96 108 101 82 83 96 110 114 119 125 135 146 161 177 179 176 167 167 189 215 226 215 211
207 200 200 194 191 199 206 207 210 213 208 204 208 207 223 213 205 232 189 118 114 117 115 108 99 82 81 90 110 137 155 166 176 189 193 199 215 227 235 240 235 221 219
219 215 205 208 203 207 213 220 216 226 233 220 224 220 230 234 229 230 232 211 197 145 130 141 147 112 89 71 64 103 161 185 197 213 215 219 232 248 253 247 235 228 233
225 228 225 217 215 219 219 223 223 221 226 225 227 227 227 232 237 213 227 228 208 183 203 180 184 170 136 119 79 63 79 128 148 165 181 199 209 209 230 246 246 248 256
225 230 230 227 224 226 225 224 220 224 222 220 228 236 236 219 223 226 217 228 229 195 220 207 193 188 192 169 103 79 60 67 86 94 86 84 92 104 106 117 271 258 199
228 228 231 230 229 226 227 227 221 223 222 219 227 230 239 245 219 209 216 217 223 219 218 216 215 195 186 190 164 131 83 44 58 77 85 85 85 82 82 87 100 108 112
221 222 227 229 228 228 230 229 225 225 223 218 219 231 242 255 247 225 208 220 217 219 224 211 223 216 200 201 160 116 126 23 25 82 96 89 85 81 81 87 90 97 109
215 215 217 220 227 228 232 230 228 228 226 226 220 218 227 238 245 252 233 205 207 218 222 220 214 220 211 208 201 170 167 203 246 113 97 91 92 90 89 87 87 93 102
208 208 205 211 219 225 229 228 228 228 235 235 231 226 222 224 229 233 236 227 219 213 212 218 223 219 217 217 210 169 188 201 209 209 195 130 108 104 95 91 86 76 53
202 197 198 206 210 219 224 224 228 232 232 237 237 238 238 240 241 237 235 232 228 222 215 219 219 218 217 220 211 188 201 202 206 210 213 207 177 138 111 68 15 356 338
204 188 190 194 194 203 210 217 233 232 238 236 242 245 247 248 245 239 238 232 229 226 225 228 205 216 219 220 216 191 208 199 204 208 212 214 212 209 214 254 322 328 322
192 183 181 184 185 191 205 208 228 230 238 240 243 246 246 248 246 242 239 234 232 230 228 229 224 210 215 222 194 210 223 195 199 206 210 213 216 220 225 235 254 285 301
186 183 189 187 184 186 192 204 221 228 235 238 242 246 245 244 241 236 234 233 232 238 241 227 222 207 191 214 208 230 232 179 195 206 211 214 217 221 227 234 243 256 275
190 190 196 201 191 189 190 190 215 208 231 238 238 243 247 245 240 233 230 228 226 227 239 240 239 245 233 235 205 227 232 217 213 204 210 214 218 222 227 233 240 247 259
203 203 195 203 198 200 202 199 204 216 232 245 248 248 252 248 245 237 230 229 228 226 235 242 232 239 250 254 251 239 231 230 234 198 204 213 218 222 226 231 236 241 248
208 209 207 209 205 208 209 211 211 222 229 239 248 255 257 252 250 244 238 237 233 230 228 235 236 227 236 243 248 247 239 236 237 208 203 216 220 223 227 231 233 236 241
220 221 221 220 218 218 221 221 221 225 230 231 235 245 254 256 263 260 253 252 245 239 231 235 236 224 220 222 233 240 241 229 232 225 218 221 222 222 228 231 233 235 238
240 238 237 233 229 229 231 231 226 228 231 228 227 229 236 299 344 311 296 285 265 253 242 238 238 228 215 200 219 226 239 244 242 232 230 222 220 227 226 229 232 234 234
269 254 248 242 236 237 198 262 256 237 234 230 228 227 213 217 221 234 263 287 300 292 289 261 248 242 234 223 219 215 222 232 239 215 235 243 233 242 244 244 222 219 225
39 23 342 286 260 351 10 261 248 251 240 238 234 227 218 224 228 235 214 222 236 237 264 293 287 282 276 245 223 217 217 225 236 198 245 264 255 259 265 259 230 218 222
49 43 36 34 42 33 12 330 264 244 242 236 234 235 229 228 221 249 249 244 250 238 235 253 287 322 357 11 235 229 221 216 208 171 199 261 268 273 291 284 239 230 232
53 53 48 42 41 31 16 1 319 248 243 236 232 235 241 242 132 216 264 264 259 247 203 247 314 355 51 100 135 162 159 178 212 203 188 227 284 303 295 288 301 251 246
49 54 52 42 35 27 20 11 349 291 264 246 233 229 222 264 110 217 251 262 270 269 222 192 208 209 214 189 198 230 217 223 230 225 180 199 231 254 281 253 294 295 264
Height
1552 1552 1554 1554 1556 1557 1558 1558 1560 1561 1561 1562 1562 1561 1561 1559 1559 1558 1557 1556 1556 1556 1557 1557 1557 1557 1558 1558 1559 1560 1560 1561 1562 1562 1563 1564 1564 1564 1565 1565 1565 1565 1564
1551 1551 1553 1553 1555 1556 1558 1559 1560 1560 1561 1561 1561 1560 1560 1560 1559 1557 1557 1556 1556 1556 1556 1556 1557 1557 1557 1557 1558 1558 1559 1560 1561 1561 1562 1562 1563 1563 1563 1564 1564 1564 1563
1549 1550 1551 1552 1553 1555 1557 1558 1559 1560 1560 1560 1560 1560 1560 1559 1559 1559 1557 1557 1556 1555 1556 1556 1556 1556 1556 1556 1557 1557 1558 1559 1559 1560 1561 1561 1561 1562 1562 1562 1563 1563 1562
1548 1549 1550 1551 1552 1554 1556 1556 1558 1558 1559 1559 1560 1560 1559 1558 1559 1558 1558 1558 1557 1556 1555 1555 1555 1555 1555 1556 1556 1556 1557 1558 1558 1559 1559 1560 1560 1560 1560 1561 1561 1561 1561
1546 1547 1548 1549 1551 1552 1553 1555 1556 1557 1558 1558 1559 1558 1559 1559 1558 1558 1559 1558 1557 1556 1556 1555 1555 1555 1555 1555 1555 1555 1555 1556 1557 1557 1557 1558 1558 1558 1558 1559 1559 1559 1559
1543 1545 1546 1547 1548 1549 1551 1552 1553 1554 1555 1556 1557 1557 1557 1557 1557 1557 1557 1557 1557 1557 1556 1556 1556 1555 1554 1555 1554 1554 1554 1555 1555 1555 1556 1556 1556 1556 1556 1556 1557 1558 1558
1539 1541 1543 1545 1545 1546 1547 1549 1550 1551 1552 1554 1555 1555 1555 1554 1556 1555 1555 1556 1556 1556 1555 1556 1556 1556 1555 1554 1554 1554 1554 1554 1554 1554 1554 1554 1554 1554 1554 1555 1555 1556 1556
1536 1538 1539 1541 1542 1543 1544 1545 1546 1547 1548 1550 1552 1552 1552 1553 1550 1552 1552 1553 1555 1554 1555 1555 1555 1554 1555 1555 1554 1554 1554 1554 1554 1554 1554 1553 1553 1553 1553 1553 1554 1554 1554
1533 1534 1536 1538 1538 1539 1540 1541 1542 1543 1544 1545 1547 1548 1548 1548 1548 1549 1549 1550 1551 1552 1553 1553 1554 1554 1554 1554 1554 1553 1553 1553 1554 1553 1553 1553 1553 1552 1552 1553 1553 1553 1553
1529 1531 1532 1534 1535 1536 1537 1538 1538 1539 1540 1540 1541 1542 1544 1545 1546 1546 1546 1547 1548 1548 1550 1550 1551 1552 1552 1552 1551 1551 1552 1552 1553 1553 1553 1553 1552 1552 1552 1552 1552 1552 1551
1526 1528 1529 1531 1532 1533 1534 1534 1535 1535 1536 1537 1537 1538 1539 1540 1541 1542 1543 1544 1544 1544 1546 1547 1548 1549 1550 1550 1549 1550 1550 1551 1551 1551 1552 1552 1552 1551 1551 1551 1551 1550 1550
1523 1524 1526 1528 1529 1530 1531 1531 1531 1531 1532 1533 1533 1534 1535 1536 1536 1537 1538 1539 1540 1542 1542 1543 1545 1546 1546 1547 1547 1548 1548 1549 1549 1549 1550 1550 1550 1550 1550 1550 1549 1549 1548
1521 1522 1524 1525 1527 1527 1528 1528 1528 1528 1528 1529 1529 1530 1531 1532 1533 1533 1534 1535 1536 1538 1539 1540 1541 1542 1543 1544 1545 1545 1546 1546 1547 1547 1548 1548 1548 1549 1548 1548 1548 1547 1546
1520 1521 1522 1524 1524 1525 1525 1525 1525 1525 1526 1526 1526 1526 1526 1527 1528 1528 1530 1531 1532 1533 1534 1536 1537 1538 1539 1541 1542 1542 1543 1544 1544 1544 1545 1545 1546 1546 1546 1546 1546 1545 1544
1519 1521 1521 1522 1522 1523 1523 1523 1523 1523 1523 1522 1522 1522 1522 1522 1523 1524 1525 1527 1529 1529 1530 1532 1534 1535 1536 1537 1538 1539 1541 1541 1542 1542 1542 1543 1543 1543 1544 1544 1543 1543 1542
1518 1519 1520 1521 1521 1521 1521 1521 1521 1520 1520 1519 1519 1518 1518 1519 1519 1519 1521 1522 1524 1525 1526 1527 1530 1532 1533 1534 1535 1536 1538 1538 1538 1539 1539 1540 1540 1541 1541 1541 1541 1541 1540
1517 1518 1519 1520 1521 1521 1520 1520 1520 1519 1518 1518 1517 1516 1516 1516 1515 1516 1517 1518 1519 1521 1522 1523 1525 1528 1529 1531 1532 1532 1534 1534 1535 1536 1536 1537 1538 1538 1538 1538 1538 1538 1537
1516 1517 1518 1519 1519 1519 1519 1519 1518 1518 1517 1516 1516 1515 1514 1514 1513 1513 1514 1515 1515 1516 1518 1518 1520 1522 1524 1526 1527 1528 1529 1530 1532 1532 1533 1534 1534 1535 1535 1535 1535 1535 1534
1515 1516 1516 1517 1518 1518 1518 1518 1517 1517 1517 1516 1515 1514 1514 1512 1512 1511 1511 1512 1512 1513 1513 1514 1515 1517 1519 1521 1522 1523 1525 1526 1527 1528 1529 1530 1530 1531 1531 1532 1532 1531 1531
1513 1514 1515 1515 1516 1516 1516 1516 1516 1516 1516 1515 1514 1513 1513 1512 1511 1511 1510 1510 1510 1510 1510 1510 1511 1512 1514 1515 1516 1518 1520 1521 1522 1523 1524 1525 1526 1527 1527 1527 1527 1527 1527
1511 1512 1512 1512 1513 1513 1513 1514 1514 1514 1515 1514 1514 1513 1512 1511 1510 1509 1509 1509 1508 1507 1507 1507 1507 1508 1509 1510 1511 1513 1514 1516 1517 1519 1520 1521 1521 1522 1522 1522 1522 1523 1523
1508 1508 1508 1509 1509 1509 1510 1510 1511 1512 1513 1513 1513 1512 1511 1510 1509 1509 1508 1507 1507 1507 1506 1505 1505 1505 1505 1506 1507 1508 1509 1511 1512 1514 1515 1517 1517 1517 1518 1518 1517 1518 1518
1505 1505 1505 1505 1506 1506 1505 1506 1507 1508 1509 1510 1511 1511 1510 1509 1508 1509 1508 1507 1506 1505 1505 1504 1504 1503 1503 1502 1503 1503 1504 1506 1507 1509 1510 1511 1512 1512 1513 1513 1513 1513 1513
1504 1503 1503 1503 1502 1502 1502 1502 1503 1504 1505 1506 1507 1508 1508 1509 1508 1508 1508 1508 1507 1506 1504 1503 1503 1502 1502 1501 1501 1501 1501 1502 1503 1504 1505 1506 1507 1508 1508 1508 1508 1507 1507
1504 1503 1502 1501 1500 1499 1499 1499 1499 1500 1501 1502 1503 1504 1505 1506 1505 1505 1506 1507 1506 1505 1504 1503 1502 1501 1501 1500 1500 1500 1500 1500 1501 1501 1502 1503 1503 1503 1503 1503 1503 1502 1502
1505 1504 1503 1501 1500 1499 1498 1497 1496 1497 1497 1498 1499 1500 1501 1502 1502 1503 1504 1505 1505 1504 1503 1502 1501 1501 1500 1500 1499 1499 1500 1500 1500 1500 1500 1500 1500 1500 1500 1499 1499 1498 1498